Regional Weather Roundup
Issued by NWS Jackson, KY

Home | Current Version | Previous Version | Text Only | Print | Product List | Glossary On
Versions: 1 2 3 4 5 6 7 8 9 10 11 12 13 14 15 16 17 18 19 20 21 22 23 24 25 26 27 28 29 30 31 32 33 34 35 36 37 38 39 40 41 42 43 44 45 46 47 48 49 50
000
ASUS43 KJKL 242019
RWRJKL

EAST KENTUCKY HOURLY WEATHER ROUNDUP
NATIONAL WEATHER SERVICE JACKSON KY
300 PM EST MON NOV 24 2014

NOTE: "FAIR" INDICATES FEW OR NO CLOUDS BELOW 12,000 FEET WITH
NO SIGNIFICANT WEATHER AND/OR OBSTRUCTIONS TO VISIBILITY.

* THESE REPORTS ARE NOT UNDER NWS QUALITY CONTROL AND MAY NOT
  REPORT WEATHER SUCH AS PRECIPITATION AND FOG.

KYZ079-080-083-085-087-088-110-112-115-119-120-242100
...EASTERN KENTUCKY...

CITY           SKY/WX    TMP DP  RH WIND       PRES   REMARKS
JACKSON        SUNNY     65  43  44 SW10G21   29.68R
LONDON         SUNNY     64  44  48 SW21G30   29.72R
SOMERSET*      MOSUNNY   59  41  51 W17G24    29.76R
MONTICELLO*    SUNNY     62  40  44 SW20G25   29.77R
MIDDLESBORO*   MOSUNNY   68  43  40 W8G16     29.71R
HARLAN APT*    CLOUDY    66  41  39 W12G22    29.69R
BLACK MTN*       N/A     55  45  67 S10         N/A
PIKEVILLE APT* MOSUNNY   68  41  37 SW10G23   29.65R
BIG SANDY*     MOCLDY    67  42  40 W17G35    29.64R
MOREHEAD APT*  PTCLDY    57  43  58 W8G28     29.72R
ASHLAND*       MOSUNNY   63  41  45 W21       29.63
$$

KYZ035-036-041-042-044-050-067-078-099-242100
...CENTRAL KENTUCKY...

CITY           SKY/WX    TMP DP  RH WIND       PRES   REMARKS
MT STERLING*   MOSUNNY   55  43  62 W21G29    29.71R
FLEMING/MASON* PTSUNNY   52  42  67 W21G32    29.69R
DANVILLE*      SUNNY     52  37  58 W22G28    29.74R
RICHMOND*      SUNNY     57  39  51 W17G32    29.71R
LEXINGTON      CLOUDY    49  40  71 W18G26    29.73R
FRANKFORT      CLOUDY    48  36  63 SW22G31   29.72R
$$

KYZ091>093-OHZ055-061-077-WVZ005-015-034-035-042-242100
...SOUTHERN OHIO/WEST VIRGINIA...

CITY           SKY/WX    TMP DP  RH WIND       PRES   REMARKS
COVINGTON      CLOUDY    45  32  61 W13G30    29.68R
COLUMBUS       PTSUNNY   52  40  63 SW23G32   29.57R
DAYTON         CLOUDY    43  35  73 SW26G39   29.62R
WILMINGTON     CLOUDY    47  36  65 W26G40    29.62R
HUNTINGTON     MOSUNNY   64  46  52 W17G26    29.62R
CHARLESTON     PTSUNNY   69  42  37 W12G20    29.59R
PINEVILLE*     PTSUNNY   71  46  40 MISG      29.70S
BECKLEY        MOSUNNY   66  41  40 SW18G37   29.67R
BLUEFIELD      MOSUNNY   69  36  29 W24G40    29.71R
$$

VAZ002-007-008-TNZ017-027-036-066-071-242100
...SOUTHWEST VIRGINIA/EAST TENNESSEE...

CITY           SKY/WX    TMP DP  RH WIND       PRES   REMARKS
WISE*          PTSUNNY   63  41  45 SW18G31   29.72S
JONESVILLE*    PTCLDY    68  45  42 SW15G30   29.72R
ABINGDON*      SUNNY     71  37  29 W28G39    29.73R
BRISTOL        MOSUNNY   71  42  35 SW26G39   29.71S
KNOXVILLE      MOSUNNY   70  46  42 SW22G31   29.71S
OAK RIDGE      SUNNY     70  43  37 SW12G23   29.73R
CROSSVILLE     SUNNY     60  44  55 W16G24    29.79R
NASHVILLE      MOSUNNY   60  36  40 W8        29.79S
$$

...KEY TO REMARKS...
VSB - VISIBILITY IN MILES
WCI - WIND CHILL INDEX
HX  - HEAT INDEX

$$


USA.gov is the U.S. government's official web portal to all federal, state and local government web resources and services.